This is the latest recevied weather packets stored in our database for station/object W4KAB. If no packets are shown the sender has not sent any weather packets the latest 10 day(s).
| Time | Temp. | Humidity | Pressure | Rain* | Wind** | Luminosity | Snow |
|---|---|---|---|---|---|---|---|
| 1778119712 | 18.33° C | 99% | 1014.7 hPa | 1.27 mm | - | 0 W/m² | - |
| 1778119408 | 18.33° C | 99% | 1014.5 hPa | 1.78 mm | - | 0 W/m² | - |
| 1778119105 | 18.33° C | 99% | 1014.5 hPa | 3.05 mm | - | 0 W/m² | - |
| 1778118803 | 18.33° C | 99% | 1014.4 hPa | 1.27 mm | - | 0 W/m² | - |
| 1778118500 | 18.33° C | 99% | 1014.2 hPa | 3.05 mm | - | 0 W/m² | - |
| 1778118196 | 18.33° C | 99% | 1014.3 hPa | 1.78 mm | - | 0 W/m² | - |
| 1778117892 | 18.33° C | 99% | 1014.4 hPa | 0 mm | - | 0 W/m² | - |
| 1778117590 | 18.33° C | 99% | 1014.2 hPa | 0 mm | - | 0 W/m² | - |
| 1778117287 | 18.33° C | 99% | 1014.1 hPa | 0 mm | - | 0 W/m² | - |
| 1778116983 | 18.33° C | 99% | 1014.1 hPa | 0 mm | - | 0 W/m² | - |
| 1778116681 | 17.78° C | 99% | 1013.5 hPa | 0 mm | - | 0 W/m² | - |
| 1778116377 | 18.33° C | 99% | 1013.4 hPa | 0 mm | - | 0 W/m² | - |
| 1778116076 | 18.33° C | 99% | 1013.3 hPa | 1.27 mm | - | 0 W/m² | - |
| 1778115773 | 18.33° C | 99% | 1013.4 hPa | 1.27 mm | - | 0 W/m² | - |
| 1778115470 | 18.33° C | 99% | 1013.2 hPa | 1.78 mm | - | 0 W/m² | - |
| 1778115167 | 18.33° C | 99% | 1013.2 hPa | 1.78 mm | - | 0 W/m² | - |
| 1778114863 | 18.33° C | 99% | 1013.4 hPa | 1.78 mm | - | 0 W/m² | - |
| 1778114561 | 18.33° C | 99% | 1013.2 hPa | 0 mm | - | 0 W/m² | - |
| 1778114257 | 18.33° C | 99% | 1013.2 hPa | 0 mm | - | 0 W/m² | - |
| 1778113952 | 18.33° C | 99% | 1013.3 hPa | 1.27 mm | - | 0 W/m² | - |
| 1778113649 | 18.33° C | 99% | 1013.4 hPa | 1.27 mm | - | 0 W/m² | - |
| 1778113345 | 18.33° C | 99% | 1013.2 hPa | 1.27 mm | - | 0 W/m² | - |
| 1778113042 | 18.33° C | 99% | 1013.6 hPa | 0 mm | - | 0 W/m² | - |
| 1778112739 | 18.33° C | 99% | 1013.5 hPa | 0 mm | - | 0 W/m² | - |
| 1778112435 | 18.33° C | 99% | 1013.8 hPa | 1.78 mm | - | 0 W/m² | - |
* Rain latest hour (hover to see other rain measurements)
** Current wind speed in m/s (hover to see current wind gust speed)